Regional Weather Roundup
Issued by NWS

Home | Current Version | Previous Version | Text Only | Print | Product List | Glossary Off
Versions: 1 2 3 4 5 6 7 8 9 10 11 12 13 14 15 16 17 18 19 20 21 22 23 24 25 26 27 28 29 30 31 32 33 34 35 36 37 38 39 40 41 42 43 44 45 46 47 48 49 50

000
ASUS43 KMKX 260320
RWRWI

WISCONSIN REGIONAL WEATHER ROUNDUP
NATIONAL WEATHER SERVICE MILWAUKEE/SULLIVAN WI
1000 PM CDT THU MAY 25 2017

NOTE: "FAIR" INDICATES FEW OR NO CLOUDS BELOW 12,000 FEET WITH NO
SIGNIFICANT WEATHER AND/OR OBSTRUCTIONS TO VISIBILITY.

WIZ001-002-006>008-014>016-023>028-260400-
NORTHWEST WISCONSIN

CITY           SKY/WX    TMP DP  RH WIND       PRES   REMARKS
SUPERIOR ARPT  NOT AVBL
ASHLAND        CLOUDY    47  43  86 N3        29.73R
HAYWARD        MOCLDY    60  49  66 N3        29.71R
SIREN          MOCLDY    60  53  76 CALM      29.70R
CUMBERLAND     CLOUDY    59  52  77 S3        29.71R
RICE LAKE      CLOUDY    61  55  78 CALM      29.72R
CHETEK         CLOUDY    60  56  88 CALM      29.71R
LADYSMITH      CLOUDY    60  55  81 CALM      29.73R
EAU CLAIRE     CLOUDY    62  51  67 CALM      29.71R
MENOMONIE      CLEAR     60  54  82 CALM      29.71R
NEW RICHMOND   CLOUDY    61  50  67 CALM      29.69S
OSCEOLA        CLOUDY    62  53  71 E6        29.71S
$$

WIZ003>005-009-010-017-018-260400-
NORTH CENTRAL WISCONSIN

CITY           SKY/WX    TMP DP  RH WIND       PRES   REMARKS
MANITOWISH WTR CLOUDY    59  51  74 CALM      29.73R
ARBOR VITAE    PTCLDY    59  53  79 CALM      29.74R
WOODRUFF       PTCLDY    59  53  79 CALM      29.74R
RHINELANDER    CLOUDY    59  52  77 CALM      29.75R
EAGLE RIVER    CLOUDY    58  46  62 E3        29.75R
LAND O LAKES   CLEAR     57  46  68 CALM      29.77R
PHILLIPS       PTCLDY    60  52  75 CALM      29.72R
TOMAHAWK       CLEAR     55  49  82 CALM      29.74R
MEDFORD        CLOUDY    56  51  84 CALM      29.74R
MERRILL        CLOUDY    60  53  76 CALM      29.73R
$$

WIZ029-030-035-036-043>047-260400-
CENTRAL WISCONSIN

CITY           SKY/WX    TMP DP  RH WIND       PRES   REMARKS
WAUSAU         MOCLDY    61  52  72 E3        29.72R
MOSINEE        MOCLDY    61  54  77 SE5       29.75R
MARSHFIELD     CLOUDY    61  49  64 S3        29.73R
STEVENS POINT  MOCLDY    61  50  67 SE3       29.75R
WAUPACA        PTCLDY    58  52  80 CALM      29.74R
WAUTOMA        CLEAR     57  53  86 MISG        N/A
WISC RAPIDS    CLOUDY    60  52  74 S3        29.75R
CAMP DOUGLAS   CLOUDY    60  54  78 S6        29.73R
$$

WIZ011>013-019>022-031-037>040-048>050-260400-
NORTHEAST WISCONSIN

CITY           SKY/WX    TMP DP  RH WIND       PRES   REMARKS
ANTIGO         MOCLDY    57  52  82 S3        29.76R
SHAWANO        MOCLDY    58  53  84 E3        29.75R
OCONTO         CLEAR     55  51  88 CALM      29.76R
STURGEON BAY   PTCLDY    52  50  93 CALM      29.77R
GREEN BAY      CLEAR     58  54  86 E6        29.75R
MANITOWOC      CLEAR     55  51  86 N3        29.76R
APPLETON       PTCLDY    57  50  77 SE6       29.74R
CLINTONVILLE   CLEAR     57  50  77 CALM      29.74R
OSHKOSH        MOCLDY    58  54  86 CALM      29.74R
$$

WIZ032>034-041-042-053>061-260400-
SOUTHWEST WISCONSIN

CITY           SKY/WX    TMP DP  RH WIND       PRES   REMARKS
LA CROSSE      CLEAR     62  55  77 E5        29.71R
SPARTA         CLEAR     55  54  94 CALM      29.74R
VIROQUA        CLEAR     61  51  68 MISG      29.74R
BOSCOBEL       CLEAR     57  54  89 CALM      29.74R
PRAIRIE DU CHI PTCLDY    62  53  72 CALM      29.72R
PLATTEVILLE    CLEAR     62  56  80 S5        29.75R
$$

WIZ056-057-062-063-064-067-068-260400-
SOUTH CENTRAL WISCONSIN

CITY           SKY/WX    TMP DP  RH WIND       PRES   REMARKS
REEDSBURG      PTCLDY    61  54  77 CALM      29.74R
BARABOO/DELLS  PTCLDY    60  51  71 CALM      29.75R
LONE ROCK      CLEAR     59  53  80 CALM      29.74R
MINERAL POINT  PTCLDY    64  54  68 S5        29.75R
MADISON        MOCLDY    58  51  78 CALM      29.74R
MIDDLETON      CLEAR     58  54  86 CALM      29.75R
WATERTOWN      CLEAR     54  54 100 CALM      29.74R
MONROE         CLOUDY    63  52  67 S6        29.74S
JANESVILLE     CLEAR     59  54  82 CALM      29.74R
$$

WIZ051-052-058>065-066-070>072-260400-
SOUTHEAST WISCONSIN

CITY           SKY/WX    TMP DP  RH WIND       PRES   REMARKS
MILWAUKEE      CLEAR     55  51  86 N6        29.75R
WAUKESHA       NOT AVBL
MILWAUKEE/TIMM   N/A     55  46  71 CALM      29.76R
RACINE         CLEAR     55  50  83 N8        29.77R
KENOSHA        CLEAR     55  51  86 N5        29.75R
FOND DU LAC    CLEAR     56  52  86 SE3       29.74R
SHEBOYGAN      CLEAR     52  52 100 CALM      29.75R
WEST BEND      CLEAR     54  52  94 CALM      29.75R
JUNEAU         CLEAR     58  53  84 CALM      29.76R
$$

LSZ147-162-260400-
LAKE SUPERIOR

STATION/POSITION TIME  TEMP    WIND        PRES    WAVE
                       AIR SEA DIR/SP/G            HT/PER
                 (UTC) (F)     (DEG/KT/KT) (MB)    (FT/S)
$$

LMZ867-665-643>646-260400-
LAKE MICHIGAN

STATION/POSITION TIME  TEMP    WIND        PRES    WAVE
                       AIR SEA DIR/SP/G            HT/PER
                 (UTC) (F)     (DEG/KT/KT) (MB)    (FT/S)
$$

TC  - TEMPERATURE IN CELSIUS
VSB - VISIBILITY IN STATUTE MILES
WCI - WIND CHILL INDEX
HX  - HEAT INDEX





USA.gov is the U.S. government's official web portal to all federal, state and local government web resources and services.